Home > Weather > Graz > Past weeks

Flag for Austria Past Weather in Graz, Styria, Austria — Yesterday and Last 2 Weeks

Now
72 °F

Mild.


Feels Like: 72 °F
Forecast: 65 / 81 °F
Wind: 6 mph from Northwest

Location: Graz-Thalerhof-Flughafen

Current Time: Jul 24, 2016 at 1:05:34 AM

Latest Report: Jul 24, 2016 at 12:20 AM


Visibility: N/A

Pressure: 30.01 "Hg

Humidity: 78%

Dew Point: 64 °F

Location of GrazLocation

Past Weather in Graz — Graph

°F

Graz Temperature Yesterday

Maximum temperature yesterday: 82 °F (at 2:20 PM)
Minimum temperature yesterday: 63 °F (at 3:50 AM)
Average temperature yesterday: 74 °F

High & Low Weather Summary for the Past Weeks

 TemperatureHumidityPressure
High88 °F (Jul 11, 2:50 PM)100% (Jul 8, 11:50 PM)30.18 "Hg (Jul 8, 11:50 PM)
Low50 °F (Jul 15, 5:20 AM)35% (Jul 14, 3:50 PM)29.77 "Hg (Jul 14, 12:50 AM)
Average70 °F70%30.03 "Hg
* Reported Jul 8 11:20 PM — Jul 23 11:50 PM, Graz, Weather by CustomWeather, © 2016

Note: Actual official high and low records may vary slightly from our data, if they occured in-between our weather recording intervals... More about our weather records

Advertising

Graz Weather History for the Previous 24 Hours

Scroll right to see more
 ConditionsComfort  
Time TempWeatherWind HumidityBarometerVisibility
11:50 PM
Sat, Jul 23
72 °FMild.3 mph73%30.01 "HgN/A
11:20 PM73 °FPassing clouds.6 mph74%30.04 "HgN/A
10:50 PM77 °FThundershowers. Passing clouds.6 mph69%30.04 "HgN/A
10:20 PM75 °FThunderstorms. Passing clouds.2 mph78%30.01 "HgN/A
9:50 PM77 °FThundershowers. Passing clouds.3 mph74%30.01 "HgN/A
9:20 PM77 °FScattered clouds.3 mph74%30.01 "HgN/A
8:50 PM77 °FPartly sunny.2 mph74%30.01 "HgN/A
8:20 PM79 °FPartly sunny.2 mph70%30.01 "HgN/A
7:50 PM79 °FSprinkles. Scattered clouds.3 mph70%30.01 "HgN/A
7:20 PM81 °FPassing clouds.3 mph62%30.01 "HgN/A
6:50 PM81 °FPassing clouds.6 mph62%30.01 "HgN/A
6:20 PM82 °FPassing clouds.6 mph55%30.01 "HgN/A
5:50 PM82 °FPassing clouds.5 mph58%30.01 "HgN/A
5:20 PM82 °FPassing clouds.6 mph55%30.01 "HgN/A
4:50 PM82 °FPassing clouds.7 mph58%30.01 "HgN/A
4:20 PM82 °FPassing clouds.5 mph58%30.01 "HgN/A
3:50 PM82 °FPassing clouds.5 mph55%30.01 "HgN/A
3:20 PM82 °FPassing clouds.5 mph55%30.01 "HgN/A
2:50 PM82 °FPassing clouds.5 mph58%30.04 "HgN/A
2:20 PM82 °FPassing clouds.5 mph55%30.04 "HgN/A
1:50 PM81 °FPassing clouds.5 mph62%30.04 "HgN/A
1:20 PM81 °FPassing clouds.3 mph62%30.04 "HgN/A
12:50 PM79 °FPassing clouds.3 mph65%30.04 "HgN/A
12:20 PM79 °FPassing clouds.3 mph65%30.04 "HgN/A
11:50 AM77 °FPassing clouds.2 mph74%30.04 "HgN/A
11:20 AM77 °FPassing clouds.5 mph69%30.04 "HgN/A
10:50 AM75 °FPassing clouds.2 mph69%30.04 "HgN/A
10:20 AM75 °FPassing clouds.5 mph74%30.04 "HgN/A
9:50 AM73 °FPassing clouds.3 mph74%30.04 "HgN/A
9:20 AM73 °FPassing clouds.1 mph78%30.04 "HgN/A
8:50 AM72 °FPassing clouds.1 mph78%30.04 "HgN/A
8:20 AM70 °FPassing clouds.1 mph83%30.04 "HgN/A
7:50 AM68 °FPassing clouds.1 mph88%30.04 "HgN/A
7:20 AM66 °FPassing clouds.1 mph88%30.04 "HgN/A
6:50 AM64 °FFog.1 mph94%30.01 "HgN/A
6:20 AM63 °FFog.2 mph100%30.01 "HgN/A
5:50 AM63 °FFog.1 mph94%30.01 "Hg2 mi
5:20 AM63 °FMild.1 mph100%30.01 "Hg2 mi
4:50 AM63 °FMild.2 mph94%30.01 "HgN/A
4:20 AM63 °FFog.1 mph100%30.01 "Hg4 mi
3:50 AM63 °FMild.1 mph100%30.01 "HgN/A
3:20 AM64 °FMild.2 mph94%30.01 "HgN/A
2:50 AM64 °FMild.1 mph94%30.01 "HgN/A
2:20 AM64 °FMild.2 mph94%30.01 "HgN/A
1:50 AM64 °FPassing clouds.1 mph100%30.01 "HgN/A
1:20 AM66 °FMild.5 mph88%30.01 "HgN/A
Weather by CustomWeather, © 2016

See weather overviewHow to use our weather pages